Weather History for KAEG - December, 2013

Change the Weather History Date:

Monday, December 23, 2013

  Actual Average Record
Temperature  
Mean Temperature 28 °F -  
Max Temperature 42 °F - - ()
Min Temperature 15 °F - - ()
Degree Days  
Heating Degree Days 36    
Moisture  
Dew Point 14 °F    
Average Humidity 63    
Maximum Humidity 80    
Minimum Humidity 36    
Precipitation  
Precipitation 0.00 in - - ()
Sea Level Pressure  
Sea Level Pressure 30.38 in    
Wind  
Wind Speed 5 mph (NW)    
Max Wind Speed 10 mph    
Max Gust Speed -    
Visibility 10 miles    
Events      
T = Trace of Precipitation, MM = Missing Value Source: NWS Daily Summary

Daily Weather History Graph

Daily Weather History Graph

Search for Another Location

Airport or City:

Trip Planner

Search our weather history database for the weather conditions in past years. The results will help you decide how hot, cold, wet, or windy it might be!

Date:

Astronomy

Dec. 23, 2013 Rise Set
Actual Time 7:12 AM MST 5:00 PM MST
Civil Twilight 6:44 AM MST 5:28 PM MST
Nautical Twilight 6:12 AM MST 6:00 PM MST
Astronomical Twilight 5:41 AM MST 6:31 PM MST
Moon 10:59 PM MST (12/23) 10:51 AM MST (12/23)
Length of Visible Light 10h 43m
Length of Day
9h 47m
Waning Gibbous, 67% of the Moon is Illuminated
Dec 23
Waning Gibbous
Dec 25
Last Quarter
Jan 1
New
Jan 7
First Quarter
Jan 15
Full

Hourly Weather History & Observations

Time (MST) Temp. Windchill Dew Point Humidity Pressure Visibility Wind Dir Wind Speed Gust Speed Precip Events Conditions
12:15 AM 27.0 °F 18.0 °F 14.0 °F 58% 30.29 in 10.0 mi NNW 9.2 mph - N/A   Clear
12:35 AM 26.8 °F 19.3 °F 14.4 °F 60% 30.29 in 10.0 mi North 6.9 mph - N/A   Clear
12:55 AM 23.2 °F - 12.7 °F 64% 30.29 in 10.0 mi Calm Calm - N/A   Clear
1:15 AM 17.8 °F 12.5 °F 10.4 °F 73% 30.29 in 10.0 mi WSW 3.5 mph - N/A   Clear
1:35 AM 17.1 °F 8.7 °F 11.1 °F 77% 30.29 in 10.0 mi West 5.8 mph - N/A   Clear
1:55 AM 16.3 °F 10.8 °F 10.6 °F 78% 30.31 in 10.0 mi NNE 3.5 mph - N/A   Clear
2:15 AM 21.2 °F - 13.5 °F 72% 30.31 in 10.0 mi Calm Calm - N/A   Clear
2:35 AM 19.4 °F - 12.2 °F 74% 30.32 in 10.0 mi Calm Calm - N/A   Clear
2:55 AM 17.1 °F 10.0 °F 11.8 °F 80% 30.32 in 10.0 mi NW 4.6 mph - N/A   Clear
3:15 AM 18.1 °F 10.0 °F 11.7 °F 76% 30.32 in 10.0 mi NW 5.8 mph - N/A   Clear
3:35 AM 20.1 °F 13.6 °F 12.4 °F 72% 30.32 in 10.0 mi NNW 4.6 mph - N/A   Clear
3:55 AM 15.6 °F - 10.2 °F 79% 30.32 in 10.0 mi Calm Calm - N/A   Clear
4:15 AM 16.7 °F - 10.9 °F 78% 30.32 in 10.0 mi Calm Calm - N/A   Clear
4:35 AM 17.6 °F - 9.7 °F 71% 30.33 in 10.0 mi Calm Calm - N/A   Clear
5:50 AM 19.4 °F 7.9 °F 12.2 °F 74% 30.35 in 10.0 mi NW 10.4 mph - N/A   Clear
6:50 AM 19.4 °F 7.9 °F 12.2 °F 74% 30.39 in 10.0 mi NW 10.4 mph - N/A   Clear
7:50 AM 21.2 °F 10.9 °F 14.0 °F 74% 30.41 in 10.0 mi NW 9.2 mph - N/A   Clear
8:50 AM 30.2 °F 23.4 °F 17.6 °F 60% 30.43 in 10.0 mi NNW 6.9 mph - N/A   Clear
9:50 AM 30.2 °F 22.6 °F 15.8 °F 55% 30.45 in 10.0 mi NW 8.1 mph - N/A   Clear
10:52 AM 35.6 °F - 15.8 °F 44% 30.46 in 10.0 mi Calm Calm - N/A   Clear
11:50 AM 39.2 °F 35.9 °F 17.6 °F 42% 30.44 in 10.0 mi Variable 4.6 mph - N/A   Clear
12:49 PM 41.0 °F 35.2 °F 17.6 °F 39% 30.42 in 10.0 mi NNW 9.2 mph - N/A   Clear
1:49 PM 41.0 °F 37.1 °F 17.6 °F 39% 30.40 in 10.0 mi WNW 5.8 mph - N/A   Clear
2:50 PM 42.8 °F - 17.6 °F 36% 30.39 in 10.0 mi Calm Calm - N/A   Clear
3:48 PM 42.8 °F - 17.6 °F 36% 30.39 in 10.0 mi Calm Calm - N/A   Clear
4:48 PM 41.0 °F - 17.6 °F 39% 30.39 in 10.0 mi Calm Calm - N/A   Clear
5:47 PM 28.4 °F 23.3 °F 12.2 °F 51% 30.40 in 10.0 mi West 4.6 mph - N/A   Clear
6:48 PM 24.8 °F - 12.2 °F 59% 30.42 in 10.0 mi Calm Calm - N/A   Clear
7:58 PM 21.2 °F - 12.2 °F 68% 30.44 in 10.0 mi Calm Calm - N/A   Clear
8:48 PM 21.2 °F - 12.2 °F 68% 30.43 in 10.0 mi Calm Calm - N/A   Clear
9:15 PM 22.1 °F 13.7 °F 14.0 °F 71% 30.42 in 10.0 mi NW 6.9 mph - N/A   Clear
9:35 PM 24.3 °F - 15.1 °F 68% 30.43 in 10.0 mi Calm Calm - N/A   Clear
9:48 PM 26.6 °F 19.1 °F 15.8 °F 64% 30.43 in 10.0 mi NW 6.9 mph - N/A   Clear
9:55 PM 27.7 °F 18.8 °F 17.4 °F 65% 30.42 in 10.0 mi NW 9.2 mph - N/A   Clear
10:15 PM 28.9 °F 19.8 °F 18.1 °F 64% 30.42 in 10.0 mi NNW 10.4 mph - N/A   Clear
10:35 PM 30.0 °F 21.7 °F 18.7 °F 63% 30.42 in 10.0 mi NW 9.2 mph - N/A   Clear
10:55 PM 28.0 °F 19.3 °F 18.1 °F 66% 30.42 in 10.0 mi NW 9.2 mph - N/A   Clear
11:15 PM 28.9 °F 20.4 °F 18.5 °F 65% 30.42 in 10.0 mi NW 9.2 mph - N/A   Clear
11:35 PM 27.5 °F 19.3 °F 18.3 °F 68% 30.42 in 10.0 mi NW 8.1 mph - N/A   Clear
11:55 PM 26.6 °F 16.8 °F 17.6 °F 69% 30.41 in 10.0 mi WNW 10.4 mph - N/A   Clear